Accueil
METAR-TAF:

METAR-TAF

Aéroports :

Aéroport de Laval - Entrammes

Laval, France

latitude: 48-01-56N, longitude: 000-44-34W, altitude: 101 m

Observation

Le bulletin a été fait il y a 23 minutes, à 03:30 UTC
Vent 1 kt de direction variable
Température 14°C
Humidité 94%
Pression 1015 hPa
Visibilité 10 km ou plus
Quelques nuages à une hauteur de 4200 ft
Nuages épars à une hauteur de 5000 ft
Ciel couvert à une hauteur de 6600 ft

METAR: LFOV 020330Z AUTO VRB01KT 9999 FEW042 SCT050 OVC066 14/13 Q1015

Heure: 05:53 (03:53 UTC)


TAF: absent

Observations et prévisions météorologiques de plus de 4000 aéroports (messages METAR et TAF).

Les stations disponibles sont représentées par des disques jaunes et rouges sur la carte.

Passer la souris dessus pour voir le nom de la station.

Cliquer dessus pour voir les observations et prévisions météorologiques.

Pour changer de carte: cliquez sur les boutons verts avec une croix noire pour zoomer, sur le bouton vert avec un tiret pour effectuer un zoom arrière, ou sur les flèches vertes pour les cartes adjacentes.


METAR-TAF: